Date String (YYYY-MM-DD hh:mm:ss) UTC,Instrument flags,Ambient pressure (hPa),Sample flow (lpm),Bypass flow (lpm),Sample temperature (°C),Ambient temperature (°C),ASC tube jacket temperature (°C),LED temperature (°C),Box temperature (°C),Sample RH (%),Span deviation,Mass concentration (μg/m³),Mass concentration (μg/m³),Mass concentration (μg/m³)
DateTimeUTC,F1_M11,P_M11,Q1_M11,Q2_M11,T1_M11,T2_M11,T3_M11,T4_M11,T5_M11,U1_M11,ZSPAN_M11,X0_M11,X2_M11,X1_M11
2021-12-29 07:00:00,,0810.4,5.00,0.00,22.7,23.3,00.0,31.5,24.6,06.1,0000.0,0012.86,0003.22,0001.15
2021-12-29 07:01:00,,0810.3,5.01,0.00,22.7,23.1,00.0,31.6,24.6,06.1,0000.0,0012.84,0003.25,0001.19
2021-12-29 07:02:00,,0810.4,4.99,0.00,22.7,22.8,00.0,31.6,24.5,06.1,0000.0,0012.07,0003.28,0001.21
2021-12-29 07:03:00,,0810.3,5.00,0.00,22.7,22.6,00.0,31.6,24.4,06.2,0000.0,0010.88,0003.30,0001.25
2021-12-29 07:04:00,,0810.3,5.01,0.00,22.7,22.4,00.0,31.6,24.4,06.3,0000.0,0011.07,0003.38,0001.29
2021-12-29 07:05:00,,0810.3,4.98,0.00,22.7,22.3,00.0,31.6,24.3,06.3,0000.0,0011.13,0003.43,0001.34
2021-12-29 07:06:00,,0810.3,5.01,0.00,22.7,22.1,00.0,31.6,24.3,06.3,0000.0,0011.30,0003.51,0001.38
2021-12-29 07:07:00,,0810.3,5.00,0.00,22.6,22.0,00.0,31.6,24.3,06.3,0000.0,0011.12,0003.55,0001.42
2021-12-29 07:08:00,,0810.4,4.99,0.00,22.6,21.9,00.0,31.6,24.2,06.4,0000.0,0011.12,0003.63,0001.47
2021-12-29 07:09:00,,0810.3,5.00,0.00,22.6,21.8,00.0,31.6,24.2,06.4,0000.0,0011.60,0003.68,0001.51
2021-12-29 07:10:00,,0810.3,4.98,0.00,22.6,21.8,00.0,31.5,24.2,06.4,0000.0,0011.84,0003.70,0001.54
2021-12-29 07:11:00,,0810.4,5.01,0.00,22.5,21.7,00.0,31.5,24.1,06.4,0000.0,0011.61,0003.68,0001.57
2021-12-29 07:12:00,,0810.4,5.00,0.00,22.5,21.6,00.0,31.5,24.1,06.4,0000.0,0011.37,0003.63,0001.57
2021-12-29 07:13:00,,0810.5,5.00,0.00,22.5,21.8,00.0,31.5,24.1,06.4,0000.0,0011.62,0003.61,0001.59
2021-12-29 07:14:00,,0810.5,5.02,0.00,22.6,22.5,00.0,31.6,24.3,06.3,0000.0,0011.62,0003.61,0001.60
2021-12-29 07:15:00,,0810.5,4.99,0.00,22.7,23.2,00.0,31.6,24.6,06.3,0000.0,0012.11,0003.60,0001.61
2021-12-29 07:16:00,,0810.5,5.00,0.00,22.8,23.2,00.0,31.6,24.7,06.2,0000.0,0012.21,0003.60,0001.60
2021-12-29 07:17:00,,0810.4,4.99,0.00,22.8,23.0,00.0,31.6,24.6,06.2,0000.0,0011.95,0003.55,0001.62
2021-12-29 07:18:00,,0810.4,5.01,0.00,22.8,22.7,00.0,31.6,24.5,06.2,0000.0,0012.32,0003.50,0001.61
2021-12-29 07:19:00,,0810.4,4.99,0.00,22.7,22.5,00.0,31.6,24.4,06.2,0000.0,0013.13,0003.45,0001.61
2021-12-29 07:20:00,,0810.4,4.99,0.00,22.7,22.3,00.0,31.6,24.3,06.2,0000.0,0013.70,0003.44,0001.60
2021-12-29 07:21:00,,0810.5,5.01,0.00,22.7,22.2,00.0,31.6,24.2,06.2,0000.0,0013.94,0003.45,0001.57
2021-12-29 07:22:00,,0810.5,5.00,0.00,22.6,22.0,00.0,31.6,24.2,06.2,0000.0,0013.85,0003.43,0001.56
2021-12-29 07:23:00,,0810.5,5.00,0.00,22.6,21.9,00.0,31.6,24.2,06.2,0000.0,0014.45,0003.46,0001.55
2021-12-29 07:24:00,,0810.5,4.99,0.00,22.5,21.8,00.0,31.6,24.1,06.2,0000.0,0016.06,0003.44,0001.53
2021-12-29 07:25:00,,0810.4,5.00,0.00,22.5,21.7,00.0,31.6,24.1,06.2,0000.0,0017.81,0003.41,0001.52
2021-12-29 07:26:00,,0810.4,5.00,0.00,22.5,21.8,00.0,31.6,24.1,06.3,0000.0,0016.61,0003.36,0001.52
2021-12-29 07:27:00,,0810.4,5.00,0.00,22.6,22.3,00.0,31.6,24.2,06.2,0000.0,0015.87,0003.34,0001.51
2021-12-29 07:28:00,,0810.5,5.00,0.00,22.7,23.1,00.0,31.6,24.5,06.2,0000.0,0015.71,0003.34,0001.49
2021-12-29 07:29:00,,0810.5,5.00,0.00,22.8,23.4,00.0,31.6,24.7,06.2,0000.0,0015.52,0003.27,0001.44
2021-12-29 07:30:00,,0810.5,4.99,0.00,22.8,23.2,00.0,31.7,24.7,06.1,0000.0,0015.01,0003.23,0001.41
2021-12-29 07:31:00,,0810.6,5.01,0.00,22.8,22.9,00.0,31.7,24.6,06.1,0000.0,0014.13,0003.19,0001.39
2021-12-29 07:32:00,,0810.6,5.00,0.00,22.8,22.7,00.0,31.7,24.5,06.1,0000.0,0014.47,0003.14,0001.38
2021-12-29 07:33:00,,0810.6,4.99,0.00,22.8,22.5,00.0,31.7,24.5,06.1,0000.0,0014.24,0003.13,0001.37
2021-12-29 07:34:00,,0810.5,5.02,0.00,22.7,22.3,00.0,31.7,24.4,06.2,0000.0,0013.75,0003.09,0001.37
2021-12-29 07:35:00,,0810.5,4.98,0.00,22.7,22.2,00.0,31.7,24.3,06.2,0000.0,0011.92,0003.10,0001.37
2021-12-29 07:36:00,,0810.5,5.00,0.00,22.7,22.1,00.0,31.7,24.3,06.2,0000.0,0009.91,0003.11,0001.36
2021-12-29 07:37:00,,0810.5,5.00,0.00,22.6,22.0,00.0,31.7,24.2,06.2,0000.0,0010.15,0003.06,0001.33
2021-12-29 07:38:00,,0810.6,5.00,0.00,22.6,21.9,00.0,31.6,24.2,06.2,0000.0,0010.35,0003.02,0001.31
2021-12-29 07:39:00,,0810.6,5.00,0.00,22.6,21.8,00.0,31.6,24.2,06.2,0000.0,0010.31,0003.01,0001.30
2021-12-29 07:40:00,,0810.5,4.99,0.00,22.5,21.7,00.0,31.6,24.1,06.2,0000.0,0010.71,0003.12,0001.29
2021-12-29 07:41:00,,0810.4,4.98,0.00,22.5,21.7,00.0,31.6,24.1,06.2,0000.0,0010.38,0003.16,0001.29
2021-12-29 07:42:00,,0810.4,5.01,0.00,22.6,22.4,00.0,31.6,24.3,06.2,0000.0,0010.13,0003.17,0001.29
2021-12-29 07:43:00,,0810.3,4.99,0.00,22.7,23.1,00.0,31.6,24.5,06.1,0000.0,0009.10,0003.13,0001.29
2021-12-29 07:44:00,,0810.4,5.00,0.00,22.8,23.4,00.0,31.7,24.7,06.1,0000.0,0008.91,0003.05,0001.28
2021-12-29 07:45:00,,0810.4,5.02,0.00,22.8,23.1,00.0,31.7,24.7,06.0,0000.0,0008.96,0003.05,0001.25
2021-12-29 07:46:00,,0810.4,4.99,0.00,22.8,22.8,00.0,31.7,24.6,06.0,0000.0,0008.85,0003.05,0001.23
2021-12-29 07:47:00,,0810.5,5.01,0.00,22.8,22.6,00.0,31.7,24.5,06.0,0000.0,0008.69,0002.99,0001.23
2021-12-29 07:48:00,,0810.4,5.00,0.00,22.8,22.4,00.0,31.7,24.5,06.0,0000.0,0009.78,0003.08,0001.22
2021-12-29 07:49:00,,0810.3,5.01,0.00,22.7,22.2,00.0,31.7,24.4,06.0,0000.0,0010.05,0003.08,0001.21
2021-12-29 07:50:00,,0810.3,4.99,0.00,22.7,22.1,00.0,31.7,24.4,06.0,0000.0,0010.10,0003.07,0001.20
2021-12-29 07:51:00,,0810.3,5.00,0.00,22.7,22.0,00.0,31.7,24.3,06.0,0000.0,0009.37,0003.02,0001.21
2021-12-29 07:52:00,,0810.4,5.01,0.00,22.7,21.9,00.0,31.7,24.3,06.0,0000.0,0009.26,0003.01,0001.18
2021-12-29 07:53:00,,0810.4,4.99,0.00,22.6,21.9,00.0,31.7,24.2,06.0,0000.0,0009.56,0003.06,0001.17
2021-12-29 07:54:00,,0810.5,5.00,0.00,22.6,21.8,00.0,31.6,24.2,06.0,0000.0,0010.84,0003.14,0001.16
2021-12-29 07:55:00,,0810.5,5.00,0.00,22.6,21.7,00.0,31.6,24.2,06.0,0000.0,0011.53,0003.21,0001.18
2021-12-29 07:56:00,,0810.4,5.01,0.00,22.5,21.7,00.0,31.6,24.1,06.0,0000.0,0012.07,0003.23,0001.18
2021-12-29 07:57:00,,0810.4,5.01,0.00,22.5,21.7,00.0,31.6,24.2,06.0,0000.0,0012.34,0003.23,0001.19
2021-12-29 07:58:00,,0810.3,4.99,0.00,22.6,22.4,00.0,31.6,24.3,06.0,0000.0,0012.86,0003.29,0001.20
2021-12-29 07:59:00,,0810.3,4.99,0.00,22.7,23.1,00.0,31.7,24.6,06.0,0000.0,0011.89,0003.25,0001.21
